This demonstration page uses our WeatherBlox Daily Observations layout. Learn more.

Left ArrowRight Arrow

34.16533, -84.80231

Hourly Observations for August 23, 2019

Temp ( °F °C ) Dew Point ( °F °C ) Humidity (%) Winds ( mph kmh ) Pressure ( in mb ) Visibility ( mi km ) Precip ( " mm )
12:10 am 00:10 Cloudy with Strong Thunderstorms 77 25 73 22.8 88 88 VRB 3 6 30.02 1017 2 2 0.15 3.81
12:24 am 00:24 Cloudy with Nearby Thunderstorms 76 24.4 73 22.8 91 91 E 6 9 30.01 1016 2 2 0.41 10.41
12:26 am 00:26 Cloudy with Thunderstorms 76 24.4 73 22.8 91 91 VRB 6 9 30.01 1016 3 4 0.41 10.41
12:33 am 00:33 Cloudy with Thunderstorms 76 24.4 73 22.8 91 91 VRB 5 7 30.02 1017 10 16 0.41 10.41
12:53 am 00:53 Mostly Cloudy with Light Rain 76 24.4 73 22.8 91 91 SE 3 6 29.99 1016 10 16 0.41 10.41
1:53 am 01:53 Mostly Cloudy 75 23.9 73 22.8 94 94 Calm 29.99 1016 9 14 0.01 0.25
2:53 am 02:53 Mostly Cloudy 75 23.9 73 22.8 94 94 Calm 29.99 1016 10 16 0.00 0.00
3:53 am 03:53 Cloudy 75 23.9 73 22.8 94 94 Calm 29.98 1015 9 14 0.00 0.00
4:53 am 04:53 Clear 75 23.9 72 22.2 90 90 Calm 29.98 1015 10 16 0.00 0.00
5:53 am 05:53 Clear 74 23.3 72 22.2 94 94 Calm 29.99 1016 10 16 0.00 0.00
6:53 am 06:53 Clear 73 22.8 71 21.7 94 94 Calm 30.01 1016 9 14 0.00 0.00
7:53 am 07:53 Sunny 75 23.9 72 22.2 90 90 Calm 30.03 1017 9 14 0.00 0.00
8:53 am 08:53 Mostly Sunny 78 25.6 73 22.8 85 85 Calm 30.04 1017 10 16 0.00 0.00
9:53 am 09:53 Cloudy 81 27.2 74 23.3 79 79 Calm 30.05 1018 10 16 0.00 0.00
10:53 am 10:53 Mostly Sunny 81 27.2 75 23.9 82 82 Calm 30.04 1017 10 16 0.03 0.76
11:53 am 11:53 Sunny 85 29.4 75 23.9 72 72 N 6 9 30.03 1017 10 16 0.00 0.00
12:53 pm 12:53 Sunny 87 30.6 73 22.8 63 63 Calm 30.00 1016 10 16 0.00 0.00
1:53 pm 13:53 Mostly Cloudy with Nearby Thunderstorms 88 31.1 71 21.7 57 57 Calm 29.98 1015 10 16 0.00 0.00
2:53 pm 14:53 Partly Cloudy with Nearby Thunderstorms 88 31.1 70 21.1 55 55 Calm 29.98 1015 10 16 0.00 0.00
3:02 pm 15:02 Mostly Cloudy with Thunderstorms 85 29.4 72 22.2 65 65 Calm 29.98 1015 10 16 0.00 0.00
3:13 pm 15:13 Mostly Cloudy with Light Rain 84 28.9 74 23.3 72 72 S 3 6 29.98 1015 10 16 0.01 0.25
3:22 pm 15:22 Mostly Cloudy with Nearby Thunderstorms 83 28.3 76 24.4 79 79 SSW 3 6 29.98 1015 8 13 0.01 0.25
3:37 pm 15:37 Partly Cloudy 83 28.3 75 23.9 77 77 Calm 29.98 1015 10 16 0.01 0.25
3:53 pm 15:53 Mostly Sunny 83 28.3 75 23.9 77 77 Calm 29.97 1015 10 16 0.01 0.25
4:53 pm 16:53 Partly Cloudy 83 28.3 71 21.7 67 67 S 3 6 29.96 1015 10 16 0.00 0.00
5:53 pm 17:53 Mostly Sunny 87 30.6 71 21.7 59 59 Calm 29.97 1015 10 16 0.00 0.00
6:53 pm 18:53 Sunny 86 30 72 22.2 63 63 Calm 29.95 1014 10 16 0.00 0.00
7:53 pm 19:53 Sunny 82 27.8 74 23.3 77 77 Calm 29.96 1015 10 16 0.00 0.00
8:53 pm 20:53 Clear 80 26.7 74 23.3 82 82 Calm 29.97 1015 10 16 0.00 0.00
9:53 pm 21:53 Clear 76 24.4 74 23.3 94 94 Calm 29.98 1015 10 16 0.00 0.00
10:53 pm 22:53 Clear 77 25 73 22.8 88 88 Calm 29.98 1015 10 16 0.00 0.00
11:53 pm 23:53 Mostly Clear 76 24.4 73 22.8 91 91 Calm 30.00 1016 10 16 0.00 0.00

Powered by AerisWeather